Torna al catalogo

DELTA 1 DEB

AttivoLEO
NORAD 10764·DEBRIS·🇺🇸 United States

Lanciato Jul 29, 1976 da Vandenberg Space Force Base

Loading…

Prossimi Passaggi (prossime 24 ore)

TLE

AggiornatoSource: Space-Track

Epoca: Sep 14, 2026, 19:55 UTC

1 10764U 76077BM  26257.83055243 -.00000171  00000-0 -14148-2 0  9998
2 10764 102.1585  19.1065 0226283 172.8687 343.0984 12.04704100205395

Traccia DELTA 1 DEB in tempo reale con AllMySat

Download on the App Store